Погода на Острове Большом Оленьем

Россия / Мурманская область     69°04′41″N   36°20′33″E
темп.,
°C
ветер,
м/с
пор.,
м/с
влажн.,
%
обл.,
%
осадки,
мм/ч
давл.,
гПа
погр.,
м
5 декабря, вс
вс500:00−15юз339959 0.0 102446
03:00−15юз449642 0.0 102455
06:00−16зюз479459 0.0 102593
09:00−15зюз5109426 0.0 1025158
12:00−15зюз7149110 0.0 1025247
15:00−14зюз9188961 0.0 1024384
18:00−13зюз12218355 0.0 1023468
21:00−14зюз1323795 0.0 1022465
6 декабря, пн
пн600:00−13зюз1323815 0.0 1021482
03:00−13зюз1424815 0.0 1020470
06:00−13зюз1321805 0.0 1019493
09:00−13зюз12198248 0.0 1018445
12:00−12зюз12198595 0.0 1018475
15:00−12з111891100 0.1 1019543
18:00−11з101682100 0.3 1019517
21:00−12з101585100 0.4 1020471
7 декабря, вт
вт700:00−12з9148789 0.2 1021436
03:00−13з91387100 0.2 1021419
06:00−13з8128499 0.0 1022366
09:00−14зюз6108883 0.0 1023277
12:00−16зюз5109463 0.0 1024183
15:00−17зюз4109776 0.0 1024156
18:00−17юз499632 0.0 1024121
21:00−17юз47955 0.0 1024100
8 декабря, ср
ср800:00−17юз46945 0.0 102486
03:00−17юз44925 0.0 102455
06:00−18юз34915 0.0 102447
09:00−18юз33904 0.0 102441
12:00−18юз33903 0.0 102437
15:00−18юз33903 0.0 102333
18:00−19юз32903 0.0 102329
21:00−18юз32883 0.0 102328
9 декабря, чт
чт900:00−18юз328591 0.0 102227
03:00−16юз2279100 0.0 102232
06:00−15юз2277100 0.0 102133
09:00−14юз2277100 0.0 102034
12:00−13юз2275100 0.0 102037
15:00−13юз2275100 0.0 101943
18:00−14юз2278100 0.0 101941
21:00−14юз3377100 0.0 101951